Location: Haram ta Haram Freeway
(35.0583°N, 51.4202°E)
Time: 19:15:30
(UTC+04:30)

N. Korean satellite - Visible Passes

Search period start: 09 April 2020 00:00
Search period end: 19 April 2020 00:00
Orbit: 454 x 507 km, 97.2° (Epoch: 09 April)

Date Brightness Start Highest point End Pass type
(mag) Time Alt. Az. Time Alt. Az. Time Alt. Az.
10 Apr 9.6 05:54:52 10° ENE 05:56:56 15° E 05:58:59 10° SE visible
14 Apr 9.9 05:46:32 10° ENE 05:47:44 11° E 05:48:57 10° ESE visible
17 Apr 9.5 06:01:44 10° NE 06:04:18 19° E 06:06:52 10° SE visible
